User: anonymous   Login
Location: McDonald Observatory
(30.6717°N, 104.0221°W)
Time: 06:38:31
(UTC-06:00)
Language:

Cosmos 1484 Rocket - Orbit

View from above orbital plane
View from above orbital plane
View from above satellite
View from above satellite

Ground track
Ground track

The orbit data is extracted from the following two-line orbital elements,

1 14208U 83075B   15061.91409349  .00004540  00000-0  29004-3 0  9991
2 14208 097.3959 094.4040 0042537 134.1853 226.2884 15.08370819721189
Epoch (UTC): 02 March 2015 21:56:17
Eccentricity: 0.0042537
inclination: 97.3959°
perigee height: 512 km
apogee height: 570 km
right ascension of ascending node: 94.4040°
argument of perigee: 134.1853°
revolutions per day: 15.08370819
mean anomaly at epoch: 226.2884°
orbit number at epoch: 72118

The dashed part of the orbit path shows where the satellite is in the earth's shadow,  

DLR